Theta_e
343 347 351 356 362 365 370 363 354 357 354 350 352 354 359 358 358 363 355 354 352 350 347 347 346 348 352 344 345 351 349 350 349 342 339 341 341 338 340 343 347 345 352 350 345 346 341 343 338
341 350 346 356 368 371 368 361 360 357 357 352 352 354 357 361 354 353 353 353 351 349 350 349 348 347 350 344 344 349 351 351 349 351 351 352 352 352 352 347 346 349 344 341 341 342 341 338 336
346 353 361 359 366 370 365 359 352 354 354 355 354 351 354 356 351 351 352 352 351 352 349 349 347 347 350 350 344 349 350 352 349 351 351 352 352 352 350 349 349 346 340 339 343 343 339 341 339
350 356 363 363 369 365 360 359 352 353 350 351 356 356 352 350 351 352 351 351 352 353 350 350 347 348 352 353 347 349 351 352 352 352 351 352 353 352 351 349 350 347 342 342 340 338 344 339 339
348 353 362 366 356 354 353 355 356 360 356 358 356 356 356 351 351 351 351 351 354 353 348 349 349 350 352 351 351 352 353 351 351 352 349 353 352 351 351 348 344 344 344 345 343 346 341 346 343
352 352 359 360 354 354 350 356 359 357 355 356 353 357 356 351 351 351 351 355 354 350 346 349 350 350 351 353 352 352 354 354 352 352 352 351 352 352 347 345 349 344 344 343 341 342 346 343 343
347 349 353 354 355 354 348 352 358 353 350 357 352 356 356 352 350 350 354 354 352 343 344 344 345 348 348 351 352 352 353 353 350 352 350 349 349 346 345 349 349 342 341 341 348 348 347 349 346
337 345 350 353 354 353 347 353 357 357 358 353 350 357 353 352 351 351 354 353 350 346 344 343 343 346 346 349 352 353 352 353 353 350 346 351 351 346 350 349 345 347 349 343 340 347 346 349 346
336 346 348 345 347 355 349 354 353 354 357 356 351 347 347 350 351 350 350 353 351 350 344 350 346 345 346 345 348 349 349 347 348 348 347 346 345 347 344 345 343 343 346 345 340 347 342 347 347
336 344 342 341 338 340 350 351 349 356 356 359 356 349 352 350 350 349 350 353 353 352 351 351 350 346 350 351 346 344 343 342 342 345 346 347 347 344 344 347 346 343 342 346 345 343 346 347 343
335 340 337 339 338 338 343 350 351 356 356 357 358 355 350 350 350 349 350 351 352 352 352 354 352 350 351 353 352 347 349 348 349 349 350 347 338 344 340 343 346 346 347 343 342 338 339 341 345
338 337 338 339 340 337 342 343 348 351 354 345 352 351 349 350 351 349 348 350 352 351 351 353 352 351 353 353 353 351 353 352 350 350 349 349 348 346 346 348 344 343 345 346 340 343 339 339 343
334 335 334 336 339 339 341 344 346 349 351 350 351 353 353 347 350 351 350 350 350 351 352 351 351 350 353 351 352 352 351 349 350 349 350 350 349 347 348 346 346 343 341 347 346 348 348 346 347
334 333 334 335 334 334 341 343 350 345 346 352 351 349 349 348 349 350 350 351 350 350 351 349 346 351 354 351 351 352 349 350 349 349 350 351 348 349 348 346 341 340 349 349 348 348 347 348 346
332 332 334 336 333 334 337 348 351 348 349 353 348 353 352 349 348 349 350 350 349 351 351 350 351 350 351 351 352 351 349 351 348 349 349 350 349 351 350 344 347 346 339 343 348 348 348 348 349
333 334 336 337 334 338 334 339 349 348 338 339 346 352 352 350 348 347 350 350 351 349 351 351 353 353 351 348 348 351 352 350 349 349 348 348 347 349 350 349 350 350 349 349 349 347 346 347 347
334 334 339 337 335 334 333 337 345 342 345 344 344 352 353 351 348 349 349 351 350 350 351 353 353 351 348 347 347 352 351 350 351 348 349 350 347 350 350 343 347 351 349 350 347 341 344 341 346
335 335 338 334 332 334 332 344 346 345 345 345 343 351 350 351 349 349 349 350 351 351 350 351 349 352 350 351 350 353 352 349 350 350 349 349 349 349 352 350 351 350 351 351 349 348 343 345 348
330 330 331 332 335 332 338 345 343 344 343 342 343 344 350 348 345 346 347 348 351 351 349 347 346 353 351 353 351 352 352 350 353 353 351 348 350 348 352 347 351 352 351 351 351 349 349 346 348
328 328 329 332 335 333 344 344 344 342 341 343 345 350 351 347 343 344 344 348 352 351 350 348 351 351 352 353 351 352 351 349 348 348 352 350 348 352 351 350 350 352 351 350 351 352 352 350 349
326 326 329 333 331 330 343 345 346 342 340 340 343 345 344 340 344 344 340 348 349 353 355 353 352 352 351 353 351 353 351 350 349 346 352 350 348 348 349 351 349 352 349 350 349 346 351 349 350
325 329 330 332 330 331 337 345 346 344 343 342 337 346 348 346 344 343 343 346 351 352 353 352 352 351 352 353 355 353 352 351 349 345 351 351 349 351 348 351 350 351 352 351 349 351 353 352 349
327 330 329 330 328 328 342 341 350 343 343 341 339 340 346 343 346 350 346 347 349 352 351 356 355 351 357 354 354 353 352 352 350 347 349 350 350 349 350 352 350 350 352 350 350 348 352 351 351
329 328 327 327 327 335 336 338 343 344 347 343 340 343 342 345 348 349 346 345 343 347 350 347 348 356 357 356 355 353 352 351 350 349 349 350 350 348 349 349 350 351 349 353 353 353 353 352 352
329 327 327 332 338 337 335 343 342 344 342 347 347 343 342 350 351 347 343 342 339 343 345 347 348 354 359 358 354 354 354 353 351 349 350 343 350 350 348 348 351 350 351 352 352 353 351 353 352
327 327 327 334 335 339 338 347 346 346 345 342 345 345 346 348 345 347 345 345 339 341 340 338 345 349 352 359 357 355 355 354 352 348 350 342 350 350 349 348 351 350 348 351 352 352 352 354 353
326 328 327 326 327 338 344 347 344 342 343 345 345 342 344 350 349 347 347 344 342 341 338 338 345 347 352 357 359 357 355 352 351 347 350 349 350 351 351 351 349 347 348 351 352 353 352 354 352
330 328 327 332 336 340 349 350 350 347 347 345 346 347 343 349 348 347 346 342 342 341 342 340 343 345 358 361 361 360 357 354 352 347 347 349 350 350 351 351 348 347 350 353 354 353 352 354 351
331 331 333 333 331 337 349 354 344 348 344 344 345 348 347 348 346 347 345 342 344 346 340 343 345 356 362 360 360 359 357 355 353 354 351 349 351 353 350 350 343 344 349 352 354 352 353 354 351
333 335 334 336 337 334 338 353 344 344 343 343 344 337 347 348 347 346 346 344 346 346 349 353 358 360 360 360 359 359 356 355 355 355 354 349 351 352 350 350 347 342 351 353 352 351 353 352 350
Wind_Speed
2 9 11 13 4 2 4 5 4 8 5 9 12 8 7 6 4 3 31 33 32 33 29 26 24 23 20 20 20 19 19 19 18 17 16 14 12 11 10 10 12 12 12 12 13 13 12 13 15
4 13 8 5 3 3 5 10 9 8 11 11 18 17 14 15 11 17 27 38 32 32 29 27 24 23 21 20 21 19 19 18 17 17 15 13 12 11 10 9 10 10 10 10 10 9 9 9 6
1 11 4 4 3 3 1 6 7 8 9 9 12 9 7 7 18 22 41 37 30 30 27 26 24 22 21 20 21 20 19 18 16 14 12 11 10 9 8 8 8 8 6 6 6 7 6 7 8
4 3 1 5 5 5 5 4 7 8 10 8 9 7 9 28 21 29 43 35 35 28 26 25 24 22 21 20 19 20 18 16 15 14 11 10 10 10 8 7 6 5 5 6 5 4 6 7 10
4 1 1 1 3 4 3 8 9 13 10 22 15 6 9 19 37 44 43 38 40 29 27 25 23 22 20 20 19 18 17 16 15 13 11 10 10 9 8 7 6 6 5 4 5 6 7 11 10
3 2 2 3 6 5 6 16 14 13 2 22 15 9 3 23 33 38 34 40 37 31 28 25 23 22 20 19 19 17 16 14 13 12 11 10 9 8 7 6 5 6 5 4 4 7 8 10 13
6 3 1 5 1 3 6 10 11 5 3 9 23 5 2 6 35 36 34 38 33 32 30 27 24 21 20 18 17 16 15 14 12 10 9 8 7 6 6 6 6 6 5 5 6 6 8 10 11
2 3 5 2 2 2 2 4 16 12 5 21 13 6 6 8 35 35 38 35 33 30 29 28 24 22 20 18 16 15 14 12 11 9 8 7 7 5 5 6 6 6 6 6 6 7 8 10 11
3 4 3 6 7 3 2 2 3 8 18 15 4 6 8 32 34 32 27 31 32 27 28 25 24 21 19 17 16 15 14 12 10 9 8 7 6 6 8 9 8 8 8 6 6 7 8 10 10
3 4 3 3 6 6 5 5 3 6 8 7 2 1 15 24 32 23 25 27 26 31 27 25 22 20 20 16 16 16 14 11 10 8 8 8 8 8 9 6 7 9 9 8 8 7 8 11 11
2 1 2 3 6 2 3 5 5 10 1 6 8 11 10 28 25 25 27 34 30 30 31 29 23 20 24 23 17 15 15 13 10 10 11 10 7 8 10 7 10 12 12 12 11 11 10 10 12
2 6 7 3 5 3 3 7 3 6 1 12 11 6 7 21 15 21 20 25 33 32 28 26 23 22 25 26 20 16 16 14 14 15 11 9 5 6 11 13 4 8 11 14 14 13 11 12 15
5 4 8 3 9 8 4 4 5 19 16 11 4 11 4 9 21 23 25 24 27 24 28 26 21 21 20 18 16 15 19 16 18 14 14 11 7 14 13 9 5 5 10 12 14 15 14 16 13
2 5 11 5 4 5 4 4 6 12 20 9 14 22 22 12 23 20 24 29 31 28 27 21 25 22 19 17 8 18 15 13 17 14 13 12 10 14 9 8 1 8 7 9 11 11 13 12 14
2 7 10 7 5 4 6 4 4 5 19 24 15 21 19 14 22 27 28 30 33 27 31 25 28 26 24 21 14 14 14 16 12 14 17 15 12 8 8 8 5 5 6 7 9 9 10 11 11
7 6 4 6 8 5 7 7 10 7 8 3 5 18 16 14 15 21 33 32 31 28 34 34 32 32 26 21 21 15 13 14 15 15 16 16 13 11 8 2 1 7 12 7 12 9 8 10 11
5 7 5 6 6 5 4 6 3 4 10 12 17 15 17 15 12 21 31 35 34 33 33 34 31 29 22 19 19 16 14 15 16 13 14 15 11 12 7 6 7 4 12 13 12 11 8 7 12
6 1 5 3 2 3 6 9 4 3 11 3 6 7 14 11 9 21 26 35 37 35 39 34 26 24 23 20 20 17 13 15 14 13 14 16 14 14 9 3 6 5 5 6 10 4 7 5 7
6 4 8 9 6 4 9 6 6 4 4 2 10 6 14 16 19 15 27 35 36 40 39 26 35 29 26 23 23 21 19 18 15 10 12 13 15 13 13 6 4 6 5 7 5 6 6 7 4
6 7 9 9 5 5 7 4 8 4 4 6 6 15 15 17 22 10 13 34 32 39 38 33 30 32 32 29 27 23 22 19 18 13 9 17 12 15 13 6 7 7 4 8 7 7 4 5 14
5 8 9 5 2 3 7 6 8 6 4 5 8 2 18 24 17 18 15 30 32 33 35 38 38 37 34 32 24 19 16 15 15 14 13 13 16 13 10 7 6 6 6 6 8 10 5 3 15
6 9 7 8 5 4 4 3 7 8 14 12 12 13 18 15 13 5 12 7 22 22 34 40 37 33 34 29 24 24 20 18 19 20 17 15 15 13 13 14 9 8 8 7 8 4 9 8 3
9 8 6 6 8 4 1 5 4 4 12 14 20 18 9 14 15 23 29 19 12 21 5 17 18 32 32 29 26 24 22 19 14 19 16 17 17 17 14 13 12 9 10 7 7 5 8 5 3
8 7 9 6 2 3 8 5 5 3 6 7 18 20 12 24 18 8 19 17 23 10 10 16 17 25 33 30 26 24 23 22 19 17 18 16 13 19 17 14 11 11 8 7 8 9 7 5 6
6 5 5 5 4 11 5 6 7 7 5 5 14 22 14 14 15 13 17 19 19 12 19 28 20 21 32 30 27 26 24 22 24 20 19 18 13 21 16 17 10 14 11 8 8 8 7 6 7
7 6 4 4 3 4 3 6 5 7 13 14 19 22 13 14 20 17 17 15 13 18 16 20 7 18 24 23 26 27 23 22 21 17 15 15 13 22 19 16 19 15 12 11 11 8 8 7 6
11 4 6 4 6 3 4 7 7 10 14 4 8 18 17 18 18 20 17 17 28 32 27 27 27 39 33 29 28 25 23 24 22 22 19 20 18 16 17 16 20 15 14 12 12 10 9 8 10
3 6 6 5 3 5 3 5 4 2 10 14 18 19 28 10 20 17 13 24 26 16 35 41 25 32 28 25 24 23 23 22 19 19 21 18 16 18 14 17 16 13 12 13 14 14 12 10 8
8 5 6 2 3 4 4 5 5 11 6 19 22 28 16 9 8 21 19 27 25 20 26 30 40 29 29 26 24 23 24 24 20 17 20 22 17 14 17 14 19 17 14 15 13 13 12 13 11
2 7 6 3 8 3 1 2 11 15 15 18 21 18 5 9 8 7 14 30 21 24 25 34 29 33 29 26 23 24 24 21 20 21 20 17 18 16 17 19 15 17 17 16 13 15 15 12 11
Wind_Direction
275 84 66 55 7 274 257 47 102 64 128 89 105 79 138 109 159 189 151 141 146 145 148 148 145 142 145 141 137 134 134 131 135 135 130 129 133 137 137 134 126 122 117 112 114 118 119 113 102
114 143 81 119 130 284 60 33 80 30 42 79 97 89 87 89 91 126 125 137 144 146 146 146 146 146 148 145 143 137 140 139 139 135 130 130 129 130 129 133 137 140 134 127 126 135 140 140 151
232 156 123 106 176 192 212 84 94 90 58 61 72 72 75 98 122 134 135 136 141 140 148 146 145 145 150 149 148 146 146 146 144 141 144 144 144 144 147 151 152 153 157 159 152 153 151 140 163
214 137 117 159 209 218 323 204 130 123 94 78 90 41 99 144 128 130 136 139 134 148 150 147 145 144 149 152 149 152 157 153 149 146 148 151 150 153 156 167 174 190 196 191 180 180 179 169 203
247 331 41 241 108 73 59 118 107 51 33 60 29 105 101 123 131 133 139 138 143 150 151 148 147 145 145 148 152 156 157 159 156 156 159 159 160 162 173 184 188 194 197 197 173 176 203 197 212
250 101 79 317 32 37 52 94 83 111 222 89 57 318 353 139 121 132 139 140 150 150 150 150 150 150 151 151 152 152 155 159 162 163 164 166 169 178 183 189 189 192 182 181 174 180 191 203 206
201 129 255 145 94 14 22 87 108 87 211 117 151 148 238 260 136 136 132 142 146 148 150 153 152 149 149 153 151 151 156 162 165 169 170 177 181 186 189 196 194 179 173 166 169 173 186 191 202
191 100 9 89 121 223 78 53 139 134 172 140 169 167 217 177 138 133 141 145 146 151 154 156 154 154 155 159 160 160 161 166 169 176 185 183 181 197 194 209 208 199 180 195 179 180 189 195 203
293 56 1 19 23 74 3 119 188 133 76 56 202 149 185 146 143 147 129 137 140 150 159 160 161 162 164 167 171 172 171 174 178 185 196 187 186 185 194 217 202 220 198 207 191 191 192 203 207
54 78 347 107 47 346 358 13 350 69 86 122 97 200 163 143 136 146 135 140 153 154 161 165 165 165 168 176 179 184 180 183 187 182 171 187 195 217 222 223 235 215 216 207 217 197 210 212 207
340 58 305 171 117 334 324 257 81 124 316 163 163 184 171 148 157 159 153 157 157 163 166 172 172 165 173 183 179 187 183 178 177 165 191 203 223 225 217 200 227 228 231 232 229 221 217 221 221
197 226 212 193 164 132 330 324 207 144 179 153 154 191 187 155 166 166 160 159 158 165 174 171 180 175 181 183 193 191 189 193 196 182 200 201 255 175 192 209 238 221 233 251 236 238 222 229 235
222 3 316 147 149 198 202 237 38 68 90 37 260 117 237 192 176 175 167 167 168 164 167 173 167 170 174 179 182 206 191 188 204 182 198 202 209 185 192 193 209 270 243 244 239 225 226 234 236
33 312 283 276 161 351 117 1 92 110 93 77 269 167 200 201 166 170 164 166 174 181 182 186 174 177 187 178 191 196 184 181 170 196 184 198 183 179 185 192 264 248 231 223 237 223 202 216 219
261 249 269 267 153 203 92 21 236 151 148 181 224 190 201 181 168 177 169 167 178 180 184 169 176 180 176 168 167 172 179 201 201 190 191 197 191 183 197 199 204 189 172 203 220 230 215 218 224
270 282 306 154 157 157 149 258 243 218 224 249 242 163 162 179 176 171 174 171 175 174 171 168 174 178 181 190 192 186 195 176 188 190 194 194 204 199 216 151 75 254 220 155 200 200 182 205 222
264 249 270 247 171 161 170 350 69 318 21 5 323 156 170 170 180 183 165 167 171 177 167 163 174 182 194 197 191 197 207 201 202 193 198 205 197 206 203 148 154 231 203 192 191 190 204 214 211
309 170 311 320 236 120 35 88 30 171 174 76 360 331 176 147 187 199 160 167 171 178 177 171 184 190 196 193 193 202 206 198 199 206 211 221 205 197 211 180 200 198 216 185 180 175 169 168 187
10 341 303 281 263 110 78 39 327 252 69 190 165 46 91 41 322 268 179 171 168 174 180 194 179 191 196 193 188 196 204 207 215 193 196 207 195 191 199 203 246 232 245 161 192 204 214 228 202
3 297 272 292 121 103 98 9 300 282 71 328 276 104 128 147 222 289 284 165 160 170 178 183 188 200 196 195 194 202 208 214 215 212 192 193 205 194 201 229 213 255 229 202 200 214 212 209 194
249 243 264 269 346 314 110 344 322 315 354 287 267 52 160 174 181 222 237 171 170 165 169 179 189 192 192 197 199 207 205 216 214 222 222 205 203 199 197 209 216 193 229 244 235 234 225 208 205
270 264 314 353 11 267 65 270 302 342 318 318 303 161 197 206 140 337 319 310 159 168 176 179 184 189 191 191 196 195 197 200 214 218 219 212 207 205 211 215 206 226 214 228 245 288 257 241 226
244 289 329 298 291 321 244 90 303 30 323 313 315 292 206 198 159 159 206 104 119 122 90 164 196 194 189 191 199 199 206 214 221 217 215 216 210 217 212 211 219 226 219 243 249 237 228 247 256
262 290 287 269 232 1 229 133 295 160 201 313 353 309 260 197 189 159 99 96 48 67 179 200 244 216 200 198 196 201 207 215 211 218 215 205 220 210 214 223 226 239 218 232 231 231 232 259 274
292 296 304 313 86 245 207 42 232 285 355 23 355 323 325 151 139 144 128 120 96 241 223 208 208 226 213 200 199 204 214 219 219 215 215 219 204 208 212 224 235 229 239 246 254 261 262 260 279
277 214 177 300 67 204 173 186 268 289 24 47 327 297 322 81 152 145 147 175 159 217 218 203 194 262 261 202 202 205 209 220 222 215 232 226 199 224 228 206 222 225 236 250 260 257 272 288 251
269 317 259 338 294 112 102 358 303 333 346 41 257 280 323 113 144 158 156 158 188 185 183 174 194 235 236 201 200 207 213 221 224 212 220 224 224 213 222 225 217 221 230 244 256 255 265 264 281
271 273 354 2 2 1 154 157 211 291 29 17 349 308 305 103 148 161 173 183 196 164 197 205 210 234 215 193 195 206 213 216 219 218 220 223 226 230 226 216 218 218 234 248 244 254 262 260 262
330 17 333 142 153 241 154 272 256 100 105 46 5 288 268 122 115 163 183 193 204 197 191 198 210 213 194 195 195 203 212 215 213 218 223 226 224 223 219 221 209 221 227 245 244 252 254 251 273
156 144 248 133 287 290 163 26 150 167 158 150 207 249 288 108 133 119 153 191 198 200 201 177 173 185 190 196 198 207 212 210 214 216 222 220 216 209 207 206 211 220 221 235 238 241 253 254 244